星链-2400 (STARLINK-2400 )

导读 | 豆包AI

STARLINK-2400是美国太空探索技术公司(SpaceX)星链(Starlink)星座的组成卫星,于2021年3月11日发射升空,属于星链计划的第二批组网卫星,旨在为全球提供高速低延迟互联网宽带服务,星链系统依托近地轨道卫星组网,目前已完成多批次卫星发射,推动全球卫星互联网覆盖进程。

Basic Information
目录编号:
47817
目录名称:
STARLINK-2400
国际标识:
2021-018AG
轨道中心:
EARTH
卫星名称:
星链-2400
卫星全名:
星链-2400 (STARLINK-2400 )
卫星状态:
在轨 (已飞行1876 天)
发射日期:
2021-03-11 UTC
国别 :
美国 (US)
星等 :
--
Orbit Information
数据来源 国际轨道数据 AOE轨道数据
星历时间 2026-04-30T07:57:37+0800
14小时前
查看轨道信息
2026-04-23T23:00:00+0800
6天前
查看轨道信息
半长轴 6848.877km 6848.886km
偏心率 0.0001345 0.0000787
轨道倾角 53.162° 53.161°
近地点辐角 85.609° 139.624°
升交点赤经 4.607° 34.276°
平近点角 274.506° 337.482°
近地点 469.818km 470.209km
远地点 471.662km 471.289km
周期 94.013分钟 94.013分钟
每日圈数 15.317003 15.31697
Detailed Information
固有亮度:
5
最大亮度:
2.5
卫星平台:
Starlink V1.0
覆盖范围:
全球
运营商:
太空探索技术公司
运营商所在国:
美国
制造商(研发单位):
太空探索技术公司
制造商所在国:
美国
使用方式:
暂无
Satellite Introduction
星链(Starlink)计划是由太空探索技术公司(SpaceX)提出的一个巨型低轨卫星互联网星座项目,计划在2019年至2024年间在太空搭建由约1.2万颗卫星组成的“星链”网络,其中1584颗将部署在地球上空550千米处的近地轨道,并从2020年开始工作。该卫星仍在工作。
2D Orbit Map
3D Orbit Map
Orbit Altitude Analysis Chart
Orbit Inclination Analysis Chart
Orbit Comprehensive Analysis Chart
View Comprehensive Chart